Terminal Aerodrome Forecast
Issued by NWS Midland/Odessa, TX

Home | Current Version | Previous Version | Text Only | Print | Product List | Glossary On
Versions: 1 2 3 4 5 6 7 8 9 10 11 12 13 14 15 16
000
FTUS44 KMAF 291700
TAFMAF
TAF
KMAF 291734Z 2918/3018 17006KT P6SM FEW200
     FM292100 14012G20KT P6SM FEW090 SCT200
     FM300300 15009KT P6SM FEW100 SCT200=

USA.gov is the U.S. government's official web portal to all federal, state and local government web resources and services.